WZZ2039 LFOB-LYBE

Flight info

Callsign WZZ2039
Flight time 1h 58m
Altitude 35000
Route BUBLI DCT LUVAL DCT BEGAR DCT TRA DCT GAMSA DCT GEDSO DCT VALLU DCT RIGMU
Aircraft A320/M-SDE3FGHIRWY/LB1

Departure

Time 2026-04-29 18:55
Airport Beauvais-Tillé airport (LFOB)

Arrival

Time 2026-04-29 20:53
Airport Belgrade Nikola Tesla Airport (LYBE)
Time Latitude Longitude Altitude Speed Heading
2026-04-29 18:18 49.45828 2.11319 358 ft 0 kts 311°
2026-04-29 18:21 49.45827 2.11319 358 ft 0 kts 311°
2026-04-29 18:43 49.45818 2.11335 351 ft 4 kts 311°
2026-04-29 18:43 49.45801 2.11366 361 ft 4 kts 301°
2026-04-29 18:43 49.45792 2.11403 354 ft 4 kts 263°
2026-04-29 18:44 49.45799 2.11430 354 ft 1 kts 223°
2026-04-29 18:44 49.45802 2.11434 360 ft 0 kts 223°
2026-04-29 18:48 49.45798 2.11428 353 ft 2 kts 223°
2026-04-29 18:48 49.45780 2.11403 357 ft 5 kts 223°
2026-04-29 18:48 49.45752 2.11362 355 ft 7 kts 222°
2026-04-29 18:48 49.45713 2.11308 354 ft 8 kts 225°
2026-04-29 18:49 49.45710 2.11217 354 ft 10 kts 299°
2026-04-29 18:49 49.45751 2.11119 351 ft 12 kts 304°
2026-04-29 18:49 49.45788 2.11029 356 ft 10 kts 294°
2026-04-29 18:49 49.45763 2.10959 353 ft 0 kts 209°
2026-04-29 18:50 49.45760 2.10956 353 ft 2 kts 208°
2026-04-29 18:51 49.45756 2.10953 354 ft 0 kts 208°
2026-04-29 18:51 49.45754 2.10951 354 ft 1 kts 208°
2026-04-29 18:51 49.45733 2.10934 361 ft 6 kts 208°
2026-04-29 18:51 49.45679 2.10889 360 ft 11 kts 208°
2026-04-29 18:52 49.45658 2.10779 363 ft 13 kts 297°
2026-04-29 18:52 49.45712 2.10653 355 ft 16 kts 304°
2026-04-29 18:52 49.45772 2.10514 356 ft 8 kts 304°
2026-04-29 18:52 49.45808 2.10474 354 ft 7 kts 336°
2026-04-29 18:53 49.45849 2.10437 358 ft 7 kts 297°
2026-04-29 18:53 49.45823 2.10411 357 ft 5 kts 160°
2026-04-29 18:53 49.45804 2.10445 360 ft 0 kts 124°
2026-04-29 18:54 49.45801 2.10452 354 ft 9 kts 124°
2026-04-29 18:54 49.45621 2.10864 357 ft 80 kts 124°
2026-04-29 18:54 49.45206 2.11819 360 ft 132 kts 123°
2026-04-29 18:54 49.44637 2.13102 688 ft 145 kts 123°
2026-04-29 18:55 49.44161 2.14456 1194 ft 148 kts 106°
2026-04-29 18:55 49.43961 2.15977 1834 ft 148 kts 98°
2026-04-29 18:55 49.43913 2.17686 2070 ft 173 kts 87°
2026-04-29 18:55 49.44023 2.19665 2385 ft 198 kts 86°
2026-04-29 18:56 49.44138 2.21893 2850 ft 220 kts 86°
2026-04-29 18:56 49.44254 2.24284 3608 ft 229 kts 86°
2026-04-29 18:56 49.44372 2.26770 3935 ft 235 kts 87°
2026-04-29 18:56 49.44490 2.29288 4027 ft 237 kts 87°
2026-04-29 18:57 49.44606 2.31828 4325 ft 241 kts 87°
2026-04-29 18:57 49.44676 2.34403 5226 ft 243 kts 94°
2026-04-29 18:57 49.44362 2.36974 6055 ft 248 kts 108°
2026-04-29 18:57 49.43611 2.39392 6865 ft 254 kts 118°
2026-04-29 18:58 49.42731 2.41765 7654 ft 258 kts 118°
2026-04-29 18:58 49.41834 2.44182 8458 ft 262 kts 119°
2026-04-29 18:58 49.40923 2.46643 8976 ft 268 kts 119°
2026-04-29 18:58 49.40000 2.49135 9104 ft 268 kts 119°
2026-04-29 18:59 49.39078 2.51622 9132 ft 268 kts 119°
2026-04-29 18:59 49.38152 2.54112 9133 ft 269 kts 119°
2026-04-29 18:59 49.37221 2.56612 9373 ft 273 kts 119°
2026-04-29 18:59 49.36277 2.59141 10218 ft 274 kts 119°
2026-04-29 19:00 49.35302 2.61757 10561 ft 294 kts 119°
2026-04-29 19:00 49.34248 2.64586 10731 ft 316 kts 119°
2026-04-29 19:00 49.33130 2.67586 11146 ft 328 kts 119°
2026-04-29 19:00 49.31991 2.70644 11773 ft 333 kts 118°
2026-04-29 19:01 49.30849 2.73704 12413 ft 337 kts 118°
2026-04-29 19:01 49.29681 2.76828 13092 ft 340 kts 118°
2026-04-29 19:01 49.28497 2.79992 13762 ft 344 kts 118°
2026-04-29 19:01 49.27301 2.83185 14359 ft 348 kts 118°
2026-04-29 19:02 49.26089 2.86411 14922 ft 352 kts 118°
2026-04-29 19:02 49.24864 2.89667 15476 ft 355 kts 118°
2026-04-29 19:02 49.23623 2.92966 16019 ft 359 kts 117°
2026-04-29 19:02 49.22370 2.96290 16567 ft 363 kts 117°
2026-04-29 19:03 49.21101 2.99653 17131 ft 367 kts 117°
2026-04-29 19:03 49.19813 3.03045 17703 ft 371 kts 118°
2026-04-29 19:03 49.18263 3.06233 18270 ft 378 kts 129°
2026-04-29 19:03 49.16320 3.08994 18795 ft 385 kts 136°
2026-04-29 19:04 49.14274 3.11664 19353 ft 388 kts 136°
2026-04-29 19:04 49.12222 3.14350 19912 ft 390 kts 136°
2026-04-29 19:04 49.10150 3.17062 20480 ft 393 kts 136°
2026-04-29 19:04 49.08066 3.19795 21031 ft 396 kts 136°
2026-04-29 19:05 49.05968 3.22547 21561 ft 399 kts 136°
2026-04-29 19:05 49.03880 3.25287 22062 ft 401 kts 136°
2026-04-29 19:05 49.01735 3.28101 22548 ft 404 kts 136°
2026-04-29 19:05 48.99592 3.30904 23035 ft 407 kts 136°
2026-04-29 19:06 48.97463 3.33679 23505 ft 410 kts 137°
2026-04-29 19:06 48.95290 3.36501 23926 ft 412 kts 137°
2026-04-29 19:06 48.90904 3.42201 24683 ft 417 kts 137°
2026-04-29 19:07 48.88687 3.45078 25044 ft 420 kts 137°
2026-04-29 19:07 48.87208 3.46995 25267 ft 422 kts 137°
2026-04-29 19:07 48.84367 3.51103 25718 ft 423 kts 127°
2026-04-29 19:07 48.82666 3.54739 26040 ft 422 kts 117°
2026-04-29 19:08 48.81421 3.58775 26363 ft 422 kts 107°
2026-04-29 19:08 48.80672 3.63083 26686 ft 423 kts 97°
2026-04-29 19:08 48.80353 3.67514 27014 ft 424 kts 93°
2026-04-29 19:08 48.80075 3.71988 27346 ft 427 kts 94°
2026-04-29 19:09 48.79783 3.76489 27676 ft 430 kts 94°
2026-04-29 19:09 48.79483 3.81006 28011 ft 432 kts 94°
2026-04-29 19:09 48.79177 3.85559 28341 ft 435 kts 94°
2026-04-29 19:09 48.78867 3.90136 28666 ft 437 kts 94°
2026-04-29 19:10 48.78558 3.94678 28971 ft 440 kts 94°
2026-04-29 19:10 48.78240 3.99350 29364 ft 440 kts 94°
2026-04-29 19:10 48.77927 4.03901 29827 ft 439 kts 94°
2026-04-29 19:10 48.77592 4.08556 30271 ft 439 kts 96°
2026-04-29 19:11 48.76936 4.13031 30620 ft 442 kts 105°
2026-04-29 19:11 48.75774 4.17427 30944 ft 447 kts 115°
2026-04-29 19:11 48.74181 4.21420 31240 ft 451 kts 123°
2026-04-29 19:11 48.72324 4.25334 31533 ft 453 kts 123°
2026-04-29 19:12 48.70508 4.29174 31836 ft 455 kts 124°
2026-04-29 19:12 48.68647 4.33130 32155 ft 456 kts 124°
2026-04-29 19:12 48.66829 4.37004 32477 ft 458 kts 124°
2026-04-29 19:12 48.65585 4.39656 32703 ft 458 kts 124°
2026-04-29 19:13 48.63134 4.44870 33165 ft 459 kts 124°
2026-04-29 19:13 48.61280 4.48803 33516 ft 460 kts 124°
2026-04-29 19:13 48.59414 4.52750 33848 ft 462 kts 125°
2026-04-29 19:13 48.57538 4.56704 34144 ft 464 kts 125°
2026-04-29 19:14 48.55658 4.60660 34413 ft 465 kts 125°
2026-04-29 19:14 48.53772 4.64616 34696 ft 465 kts 125°
2026-04-29 19:14 48.51872 4.68590 34984 ft 466 kts 125°
2026-04-29 19:14 48.49975 4.72555 35107 ft 468 kts 125°
2026-04-29 19:15 48.48057 4.76566 35143 ft 474 kts 125°
2026-04-29 19:15 48.44183 4.84651 35135 ft 477 kts 125°
2026-04-29 19:16 48.40297 4.92754 35135 ft 477 kts 125°
2026-04-29 19:16 48.36407 5.00857 35131 ft 478 kts 125°
2026-04-29 19:17 48.32502 5.08955 35138 ft 479 kts 125°
2026-04-29 19:17 48.29291 5.17652 35140 ft 476 kts 108°
2026-04-29 19:18 48.27653 5.27257 35140 ft 475 kts 100°
2026-04-29 19:18 48.26220 5.36936 35146 ft 475 kts 100°
2026-04-29 19:19 48.24766 5.46615 35154 ft 476 kts 101°
2026-04-29 19:19 48.23298 5.56292 35157 ft 476 kts 101°
2026-04-29 19:20 48.21825 5.65969 35168 ft 476 kts 101°
2026-04-29 19:20 48.20353 5.75644 35176 ft 476 kts 101°
2026-04-29 19:21 48.18872 5.85323 35185 ft 476 kts 101°
2026-04-29 19:21 48.17390 5.94970 35182 ft 475 kts 101°
2026-04-29 19:22 48.15892 6.04603 35182 ft 475 kts 101°
2026-04-29 19:22 48.14384 6.14220 35182 ft 474 kts 101°
2026-04-29 19:23 48.12874 6.23829 35180 ft 474 kts 101°
2026-04-29 19:23 48.11358 6.33438 35173 ft 474 kts 101°
2026-04-29 19:24 48.09845 6.42958 35159 ft 473 kts 101°
2026-04-29 19:24 48.08308 6.52595 35164 ft 473 kts 101°
2026-04-29 19:25 48.06779 6.62157 35164 ft 473 kts 101°
2026-04-29 19:25 48.05244 6.71695 35172 ft 472 kts 101°
2026-04-29 19:26 48.03692 6.81245 35172 ft 472 kts 101°
2026-04-29 19:26 48.02144 6.90712 35171 ft 472 kts 102°
2026-04-29 19:27 48.00573 7.00231 35176 ft 472 kts 102°
2026-04-29 19:27 47.98994 7.09751 35172 ft 473 kts 101°
2026-04-29 19:28 47.97417 7.19277 35171 ft 473 kts 102°
2026-04-29 19:28 47.95827 7.28798 35179 ft 473 kts 102°
2026-04-29 19:29 47.94228 7.38314 35182 ft 473 kts 102°
2026-04-29 19:29 47.92619 7.47824 35183 ft 473 kts 102°
2026-04-29 19:30 47.90994 7.57322 35182 ft 473 kts 104°
2026-04-29 19:30 47.88770 7.66572 35179 ft 475 kts 109°
2026-04-29 19:31 47.86435 7.75777 35175 ft 475 kts 109°
2026-04-29 19:31 47.84084 7.84987 35179 ft 476 kts 109°
2026-04-29 19:32 47.81734 7.94191 35186 ft 476 kts 109°
2026-04-29 19:32 47.79378 8.03416 35187 ft 477 kts 109°
2026-04-29 19:33 47.77012 8.12643 35197 ft 477 kts 109°
2026-04-29 19:33 47.74635 8.21846 35203 ft 477 kts 109°
2026-04-29 19:34 47.72246 8.31038 35201 ft 477 kts 109°
2026-04-29 19:34 47.69846 8.40233 35204 ft 478 kts 109°
2026-04-29 19:35 47.67519 8.49476 35200 ft 478 kts 107°
2026-04-29 19:35 47.65440 8.58839 35202 ft 478 kts 105°
2026-04-29 19:36 47.63404 8.68232 35199 ft 479 kts 106°
2026-04-29 19:36 47.61297 8.77602 35198 ft 480 kts 107°
2026-04-29 19:37 47.59137 8.86968 35186 ft 481 kts 107°
2026-04-29 19:37 47.57333 8.94756 35188 ft 481 kts 107°
2026-04-29 19:38 47.54810 9.05668 35186 ft 482 kts 107°
2026-04-29 19:38 47.52989 9.13528 35194 ft 482 kts 107°
2026-04-29 19:39 47.50800 9.22920 35188 ft 483 kts 107°
2026-04-29 19:39 47.48610 9.32300 35193 ft 483 kts 107°
2026-04-29 19:40 47.46412 9.41695 35203 ft 483 kts 107°
2026-04-29 19:40 47.44213 9.51026 35205 ft 484 kts 107°
2026-04-29 19:41 47.41984 9.60412 35206 ft 484 kts 107°
2026-04-29 19:41 47.40184 9.69940 35204 ft 481 kts 98°
2026-04-29 19:42 47.38861 9.79631 35198 ft 481 kts 99°
2026-04-29 19:42 47.37517 9.89306 35193 ft 482 kts 99°
2026-04-29 19:43 47.36152 9.98988 35186 ft 482 kts 99°
2026-04-29 19:43 47.34785 10.08667 35180 ft 482 kts 99°
2026-04-29 19:44 47.33413 10.18352 35189 ft 483 kts 99°
2026-04-29 19:44 47.32065 10.27781 35199 ft 484 kts 99°
2026-04-29 19:45 47.30674 10.37487 35204 ft 484 kts 99°
2026-04-29 19:45 47.29271 10.47185 35209 ft 484 kts 99°
2026-04-29 19:46 47.27858 10.56898 35210 ft 484 kts 100°
2026-04-29 19:46 47.26439 10.66592 35219 ft 484 kts 100°
2026-04-29 19:47 47.25014 10.76277 35221 ft 484 kts 100°
2026-04-29 19:47 47.23577 10.85965 35220 ft 484 kts 100°
2026-04-29 19:48 47.22139 10.95580 35230 ft 485 kts 100°
2026-04-29 19:48 47.20681 11.05254 35227 ft 485 kts 100°
2026-04-29 19:49 47.19222 11.14924 35225 ft 485 kts 100°
2026-04-29 19:49 47.17750 11.24602 35226 ft 486 kts 100°
2026-04-29 19:50 47.16274 11.34289 35221 ft 486 kts 101°
2026-04-29 19:50 47.14786 11.43991 35216 ft 487 kts 101°
2026-04-29 19:51 47.13289 11.53710 35215 ft 488 kts 101°
2026-04-29 19:51 47.11775 11.63442 35216 ft 489 kts 101°
2026-04-29 19:52 47.10249 11.73178 35218 ft 490 kts 101°
2026-04-29 19:52 47.08707 11.82917 35217 ft 490 kts 101°
2026-04-29 19:53 47.07025 11.92615 35218 ft 491 kts 104°
2026-04-29 19:53 47.05007 12.02190 35227 ft 492 kts 107°
2026-04-29 19:54 47.01829 12.16496 35216 ft 492 kts 106°
2026-04-29 19:54 46.99783 12.26056 35213 ft 492 kts 105°
2026-04-29 19:55 46.97759 12.35638 35213 ft 493 kts 105°
2026-04-29 19:55 46.95724 12.45170 35208 ft 494 kts 106°
2026-04-29 19:56 46.93636 12.54818 35206 ft 494 kts 107°
2026-04-29 19:56 46.91561 12.64357 35207 ft 496 kts 106°
2026-04-29 19:57 46.89804 12.72411 35205 ft 496 kts 107°
2026-04-29 19:57 46.87364 12.83566 35208 ft 496 kts 107°
2026-04-29 19:58 46.85251 12.93177 35213 ft 497 kts 107°
2026-04-29 19:58 46.83127 13.02804 35224 ft 498 kts 107°
2026-04-29 19:59 46.80996 13.12425 35227 ft 498 kts 107°
2026-04-29 19:59 46.78850 13.22042 35228 ft 499 kts 107°
2026-04-29 20:00 46.76687 13.31659 35227 ft 499 kts 107°
2026-04-29 20:00 46.74516 13.41286 35232 ft 500 kts 107°
2026-04-29 20:01 46.72345 13.50902 35238 ft 500 kts 107°
2026-04-29 20:01 46.70154 13.60535 35241 ft 501 kts 108°
2026-04-29 20:02 46.67947 13.70165 35240 ft 502 kts 108°
2026-04-29 20:02 46.66098 13.78255 35252 ft 503 kts 107°
2026-04-29 20:03 46.63530 13.89478 35266 ft 503 kts 108°
2026-04-29 20:03 46.61299 13.99137 35282 ft 504 kts 108°
2026-04-29 20:04 46.59053 14.08793 35292 ft 504 kts 108°
2026-04-29 20:04 46.56804 14.18446 35298 ft 505 kts 108°
2026-04-29 20:05 46.54539 14.28117 35299 ft 505 kts 108°
2026-04-29 20:05 46.52258 14.37785 35290 ft 507 kts 108°
2026-04-29 20:06 46.49966 14.47468 35280 ft 508 kts 108°
2026-04-29 20:06 46.47665 14.57152 35267 ft 508 kts 109°
2026-04-29 20:07 46.45359 14.66841 35262 ft 509 kts 108°
2026-04-29 20:07 46.43042 14.76547 35258 ft 509 kts 109°
2026-04-29 20:08 46.41107 14.84604 35264 ft 510 kts 109°
2026-04-29 20:08 46.38415 14.95720 35263 ft 510 kts 109°
2026-04-29 20:09 46.36064 15.05423 35264 ft 511 kts 109°
2026-04-29 20:09 46.33699 15.15132 35261 ft 511 kts 109°
2026-04-29 20:10 46.31338 15.24772 35264 ft 512 kts 109°
2026-04-29 20:10 46.28938 15.34531 35270 ft 512 kts 109°
2026-04-29 20:11 46.26837 15.44310 35276 ft 512 kts 104°
2026-04-29 20:11 46.25023 15.54258 35285 ft 513 kts 104°
2026-04-29 20:12 46.23162 15.64211 35286 ft 513 kts 105°
2026-04-29 20:12 46.21188 15.74113 35280 ft 513 kts 105°
2026-04-29 20:13 46.19517 15.82333 35274 ft 514 kts 106°
2026-04-29 20:13 46.17157 15.93906 35261 ft 514 kts 105°
2026-04-29 20:14 46.15156 16.03797 35259 ft 514 kts 105°
2026-04-29 20:14 46.13151 16.13683 35291 ft 514 kts 106°
2026-04-29 20:15 46.11130 16.23568 35293 ft 514 kts 106°
2026-04-29 20:15 46.09093 16.33437 35290 ft 514 kts 106°
2026-04-29 20:16 46.07052 16.43301 35282 ft 514 kts 106°
2026-04-29 20:16 46.05005 16.53159 35278 ft 514 kts 106°
2026-04-29 20:17 46.02952 16.63016 35277 ft 514 kts 106°
2026-04-29 20:17 46.00889 16.72869 35275 ft 514 kts 107°
2026-04-29 20:18 45.98817 16.82720 35273 ft 515 kts 107°
2026-04-29 20:18 45.96725 16.92580 35275 ft 515 kts 107°
2026-04-29 20:19 45.94628 17.02428 35270 ft 515 kts 107°
2026-04-29 20:19 45.92527 17.12273 35267 ft 515 kts 107°
2026-04-29 20:20 45.90776 17.20453 35261 ft 515 kts 107°
2026-04-29 20:20 45.88655 17.30285 35259 ft 516 kts 107°
2026-04-29 20:21 45.86519 17.40116 35257 ft 516 kts 107°
2026-04-29 20:21 45.84374 17.49947 35260 ft 516 kts 107°
2026-04-29 20:22 45.82230 17.59776 35260 ft 516 kts 108°
2026-04-29 20:22 45.80073 17.69595 35262 ft 516 kts 108°
2026-04-29 20:23 45.77905 17.79405 35262 ft 516 kts 108°
2026-04-29 20:23 45.75731 17.89210 35254 ft 516 kts 108°
2026-04-29 20:24 45.73547 17.99007 35256 ft 517 kts 108°
2026-04-29 20:24 45.71350 18.08802 35259 ft 517 kts 108°
2026-04-29 20:25 45.69144 18.18600 35261 ft 518 kts 108°
2026-04-29 20:25 45.66937 18.28393 35263 ft 518 kts 108°
2026-04-29 20:26 45.64717 18.38183 35260 ft 518 kts 108°
2026-04-29 20:26 45.62487 18.47967 35262 ft 518 kts 108°
2026-04-29 20:27 45.60627 18.56098 35262 ft 518 kts 108°
2026-04-29 20:27 45.58000 18.67519 35262 ft 518 kts 109°
2026-04-29 20:28 45.55760 18.77218 35261 ft 518 kts 109°
2026-04-29 20:28 45.53493 18.86972 35261 ft 518 kts 109°
2026-04-29 20:29 45.51225 18.96714 35268 ft 517 kts 109°
2026-04-29 20:29 45.48958 19.06423 35023 ft 516 kts 109°
2026-04-29 20:30 45.47807 19.11317 33821 ft 528 kts 109°
2026-04-29 20:30 45.46624 19.16329 32570 ft 537 kts 109°
2026-04-29 20:30 45.45426 19.21389 31479 ft 541 kts 109°
2026-04-29 20:30 45.44221 19.26472 30561 ft 540 kts 110°
2026-04-29 20:31 45.43021 19.31519 29624 ft 538 kts 110°
2026-04-29 20:31 45.41829 19.36533 28797 ft 532 kts 110°
2026-04-29 20:31 45.40426 19.41364 28084 ft 523 kts 119°
2026-04-29 20:31 45.38653 19.45827 27417 ft 515 kts 123°
2026-04-29 20:32 45.36881 19.50151 26764 ft 509 kts 123°
2026-04-29 20:32 45.35110 19.54466 26117 ft 503 kts 123°
2026-04-29 20:32 45.33355 19.58735 25495 ft 497 kts 123°
2026-04-29 20:32 45.31618 19.62950 24871 ft 491 kts 123°
2026-04-29 20:33 45.29905 19.67104 24300 ft 485 kts 123°
2026-04-29 20:33 45.28205 19.71215 23696 ft 479 kts 123°
2026-04-29 20:33 45.26527 19.75267 23018 ft 474 kts 123°
2026-04-29 20:33 45.24866 19.79275 22375 ft 468 kts 123°
2026-04-29 20:34 45.23225 19.83233 21743 ft 463 kts 123°
2026-04-29 20:34 45.21599 19.87149 21143 ft 458 kts 123°
2026-04-29 20:34 45.19992 19.91010 20550 ft 453 kts 123°
2026-04-29 20:34 45.18482 19.94632 20024 ft 448 kts 123°
2026-04-29 20:35 45.16905 19.98411 19483 ft 444 kts 124°
2026-04-29 20:35 45.15341 20.02161 18970 ft 440 kts 124°
2026-04-29 20:35 45.13789 20.05882 18457 ft 437 kts 124°
2026-04-29 20:35 45.12251 20.09564 17947 ft 432 kts 124°
2026-04-29 20:36 45.10725 20.13202 17447 ft 427 kts 123°
2026-04-29 20:36 45.09219 20.16782 16943 ft 421 kts 123°
2026-04-29 20:36 45.07801 20.20151 16454 ft 416 kts 123°
2026-04-29 20:36 45.06291 20.23748 15931 ft 411 kts 123°
2026-04-29 20:37 45.04861 20.27155 15458 ft 405 kts 123°
2026-04-29 20:37 45.03427 20.30560 14954 ft 400 kts 123°
2026-04-29 20:37 45.02011 20.33911 14448 ft 394 kts 123°
2026-04-29 20:37 45.00611 20.37208 13934 ft 389 kts 122°
2026-04-29 20:38 44.99225 20.40468 13338 ft 384 kts 122°
2026-04-29 20:38 44.97858 20.43683 12713 ft 380 kts 122°
2026-04-29 20:38 44.96506 20.46870 12260 ft 373 kts 122°
2026-04-29 20:38 44.95206 20.49944 12129 ft 356 kts 121°
2026-04-29 20:39 44.93962 20.52882 11995 ft 342 kts 121°
2026-04-29 20:39 44.92759 20.55712 11864 ft 330 kts 121°
2026-04-29 20:39 44.91596 20.58435 11734 ft 319 kts 122°
2026-04-29 20:39 44.90403 20.61030 11487 ft 312 kts 130°
2026-04-29 20:40 44.88841 20.63105 11171 ft 308 kts 147°
2026-04-29 20:40 44.86952 20.64468 10826 ft 304 kts 163°
2026-04-29 20:40 44.84900 20.65096 10471 ft 301 kts 173°
2026-04-29 20:40 44.82828 20.65556 10123 ft 301 kts 172°
2026-04-29 20:41 44.80761 20.66026 9724 ft 300 kts 171°
2026-04-29 20:41 44.78788 20.66922 9362 ft 299 kts 153°
2026-04-29 20:41 44.77097 20.68586 9021 ft 296 kts 135°
2026-04-29 20:41 44.75825 20.70834 8665 ft 293 kts 120°
2026-04-29 20:42 44.74751 20.73253 8354 ft 290 kts 121°
2026-04-29 20:42 44.73694 20.75612 8223 ft 280 kts 121°
2026-04-29 20:42 44.72669 20.77889 8091 ft 271 kts 121°
2026-04-29 20:42 44.71669 20.80106 7874 ft 266 kts 120°
2026-04-29 20:43 44.70683 20.82293 7611 ft 264 kts 120°
2026-04-29 20:43 44.69701 20.84463 7344 ft 262 kts 120°
2026-04-29 20:43 44.68714 20.86605 7071 ft 260 kts 124°
2026-04-29 20:43 44.67341 20.88229 6811 ft 262 kts 154°
2026-04-29 20:44 44.65560 20.88656 6521 ft 263 kts 187°
2026-04-29 20:44 44.63889 20.87783 6205 ft 262 kts 212°
2026-04-29 20:44 44.62321 20.86394 5840 ft 263 kts 213°
2026-04-29 20:44 44.60837 20.84902 5532 ft 261 kts 228°
2026-04-29 20:45 44.59964 20.82770 5276 ft 253 kts 258°
2026-04-29 20:45 44.59940 20.80337 5140 ft 246 kts 288°
2026-04-29 20:45 44.60670 20.78211 5033 ft 243 kts 305°
2026-04-29 20:45 44.61563 20.76230 4922 ft 244 kts 305°
2026-04-29 20:46 44.62468 20.74218 4813 ft 243 kts 305°
2026-04-29 20:46 44.63361 20.72226 4714 ft 237 kts 304°
2026-04-29 20:46 44.64230 20.70277 4613 ft 227 kts 305°
2026-04-29 20:46 44.65038 20.68464 4517 ft 218 kts 305°
2026-04-29 20:47 44.65836 20.66672 4431 ft 215 kts 305°
2026-04-29 20:47 44.66627 20.64897 4339 ft 214 kts 305°
2026-04-29 20:47 44.67415 20.63130 4247 ft 213 kts 305°
2026-04-29 20:47 44.68204 20.61360 4154 ft 214 kts 305°
2026-04-29 20:48 44.68994 20.59590 4066 ft 214 kts 305°
2026-04-29 20:48 44.69774 20.57850 3932 ft 206 kts 306°
2026-04-29 20:48 44.70534 20.56179 3779 ft 199 kts 306°
2026-04-29 20:48 44.71276 20.54556 3642 ft 196 kts 306°
2026-04-29 20:49 44.72010 20.52956 3504 ft 194 kts 306°
2026-04-29 20:49 44.72735 20.51358 3392 ft 193 kts 306°
2026-04-29 20:49 44.73454 20.49754 3243 ft 194 kts 305°
2026-04-29 20:49 44.74161 20.48172 3039 ft 187 kts 305°
2026-04-29 20:50 44.74830 20.46672 2779 ft 175 kts 306°
2026-04-29 20:50 44.75457 20.45266 2537 ft 163 kts 305°
2026-04-29 20:50 44.76035 20.43970 2325 ft 150 kts 305°
2026-04-29 20:50 44.76571 20.42768 2134 ft 142 kts 305°
2026-04-29 20:51 44.77090 20.41605 1947 ft 139 kts 305°
2026-04-29 20:51 44.77603 20.40455 1768 ft 138 kts 305°
2026-04-29 20:51 44.78108 20.39316 1561 ft 137 kts 303°
2026-04-29 20:51 44.78605 20.38199 1336 ft 136 kts 303°
2026-04-29 20:52 44.79052 20.37203 1184 ft 135 kts 302°
2026-04-29 20:52 44.79533 20.36137 1040 ft 135 kts 301°
2026-04-29 20:52 44.80025 20.35024 829 ft 133 kts 300°
2026-04-29 20:52 44.80516 20.33919 627 ft 133 kts 300°
2026-04-29 20:53 44.80997 20.32806 402 ft 133 kts 299°
2026-04-29 20:53 44.81488 20.31710 311 ft 127 kts 301°
2026-04-29 20:53 44.81880 20.30830 307 ft 82 kts 302°
2026-04-29 20:53 44.82092 20.30351 306 ft 36 kts 301°
2026-04-29 20:54 44.82169 20.29984 308 ft 10 kts 270°
2026-04-29 20:54 44.82170 20.29886 307 ft 11 kts 271°
2026-04-29 20:54 44.82172 20.29794 310 ft 0 kts 271°
2026-04-29 20:55 44.82172 20.29787 310 ft 2 kts 271°
2026-04-29 20:56 44.82170 20.29749 310 ft 6 kts 261°
2026-04-29 20:56 44.82147 20.29691 308 ft 8 kts 223°
2026-04-29 20:56 44.82088 20.29638 307 ft 12 kts 212°
2026-04-29 20:56 44.82010 20.29564 308 ft 15 kts 214°
2026-04-29 20:57 44.81911 20.29476 308 ft 19 kts 211°
2026-04-29 20:57 44.81831 20.29407 308 ft 8 kts 212°
2026-04-29 20:57 44.81801 20.29339 307 ft 10 kts 281°
2026-04-29 20:57 44.81783 20.29248 307 ft 12 kts 212°
2026-04-29 20:58 44.81748 20.29199 309 ft 7 kts 271°
2026-04-29 20:58 44.81763 20.29160 307 ft 4 kts 301°
2026-04-29 20:58 44.81775 20.29133 307 ft 0 kts 302°